QPF
0.00 0.01 0.02 0.02 0.02 0.02 0.02 0.03 0.03 0.03 0.03 0.03 0.03 0.03 0.03 0.03 0.02 0.02 0.02 0.02 0.02 0.02 0.02 0.02 0.02 0.03 0.04 0.03 0.02 0.02 0.02 0.01 0.02 0.02 0.02 0.02 0.02 0.02 0.02 0.01 0.01 0.02 0.02
0.00 0.01 0.01 0.02 0.02 0.02 0.02 0.03 0.03 0.03 0.03 0.03 0.02 0.02 0.02 0.02 0.02 0.02 0.02 0.03 0.04 0.04 0.03 0.02 0.02 0.03 0.05 0.02 0.02 0.02 0.02 0.01 0.01 0.01 0.01 0.01 0.01 0.02 0.02 0.02 0.01 0.02 0.02
0.00 0.01 0.01 0.01 0.01 0.01 0.01 0.02 0.02 0.02 0.02 0.02 0.02 0.02 0.02 0.02 0.02 0.02 0.02 0.03 0.05 0.09 0.08 0.03 0.02 0.02 0.03 0.01 0.01 0.02 0.02 0.01 0.01 0.01 0.01 0.01 0.02 0.02 0.02 0.02 0.02 0.01 0.01
0.00 0.00 0.01 0.01 0.01 0.01 0.01 0.01 0.01 0.01 0.01 0.01 0.03 0.03 0.03 0.02 0.01 0.02 0.02 0.03 0.04 0.05 0.05 0.04 0.03 0.04 0.02 0.02 0.01 0.02 0.02 0.01 0.01 0.01 0.00 0.00 0.01 0.02 0.03 0.03 0.02 0.02 0.01
0.00 0.00 0.00 0.01 0.01 0.02 0.02 0.02 0.01 0.01 0.01 0.01 0.02 0.03 0.03 0.03 0.01 0.02 0.02 0.03 0.03 0.03 0.03 0.04 0.03 0.03 0.02 0.01 0.01 0.01 0.02 0.02 0.01 0.01 0.00 0.00 0.01 0.02 0.03 0.04 0.04 0.03 0.02
0.00 0.00 0.01 0.01 0.02 0.03 0.03 0.03 0.02 0.02 0.01 0.01 0.01 0.02 0.03 0.03 0.02 0.02 0.01 0.01 0.01 0.02 0.02 0.03 0.03 0.03 0.02 0.02 0.01 0.01 0.01 0.02 0.01 0.01 0.00 0.00 0.01 0.02 0.04 0.05 0.06 0.03 0.02
0.00 0.00 0.01 0.02 0.03 0.04 0.04 0.04 0.04 0.03 0.02 0.02 0.02 0.02 0.02 0.02 0.02 0.02 0.01 0.01 0.01 0.01 0.01 0.02 0.02 0.02 0.02 0.03 0.02 0.02 0.01 0.01 0.01 0.01 0.00 0.00 0.01 0.02 0.03 0.04 0.05 0.05 0.04
0.00 0.00 0.01 0.02 0.02 0.03 0.04 0.04 0.04 0.04 0.04 0.03 0.02 0.01 0.01 0.02 0.02 0.02 0.01 0.01 0.01 0.01 0.01 0.01 0.01 0.02 0.02 0.02 0.03 0.04 0.03 0.01 0.01 0.01 0.00 0.01 0.01 0.02 0.03 0.03 0.04 0.04 0.05
0.00 0.01 0.01 0.01 0.01 0.01 0.02 0.03 0.04 0.04 0.04 0.04 0.03 0.02 0.01 0.01 0.02 0.02 0.01 0.01 0.01 0.01 0.01 0.01 0.01 0.02 0.02 0.02 0.02 0.03 0.03 0.02 0.01 0.01 0.00 0.01 0.01 0.01 0.03 0.03 0.04 0.04 0.04
0.00 0.00 0.01 0.01 0.01 0.01 0.02 0.02 0.03 0.03 0.04 0.04 0.05 0.03 0.01 0.01 0.01 0.01 0.01 0.02 0.01 0.01 0.01 0.01 0.01 0.01 0.02 0.02 0.01 0.01 0.02 0.02 0.01 0.01 0.01 0.01 0.01 0.02 0.03 0.04 0.05 0.05 0.06
0.00 0.00 0.00 0.00 0.00 0.01 0.01 0.01 0.01 0.02 0.03 0.04 0.05 0.05 0.03 0.02 0.01 0.01 0.01 0.01 0.02 0.02 0.02 0.02 0.02 0.01 0.02 0.02 0.01 0.01 0.01 0.01 0.01 0.01 0.01 0.01 0.01 0.02 0.04 0.04 0.05 0.06 0.07
0.00 0.00 0.01 0.01 0.00 0.00 0.00 0.00 0.01 0.01 0.02 0.03 0.04 0.05 0.05 0.03 0.01 0.01 0.01 0.01 0.01 0.01 0.01 0.02 0.02 0.02 0.02 0.02 0.02 0.01 0.01 0.01 0.01 0.01 0.01 0.01 0.01 0.02 0.03 0.04 0.04 0.06 0.07
0.01 0.00 0.00 0.00 0.00 0.00 0.00 0.00 0.00 0.01 0.01 0.02 0.03 0.03 0.04 0.04 0.03 0.02 0.02 0.01 0.00 0.00 0.01 0.01 0.02 0.02 0.02 0.02 0.01 0.01 0.01 0.01 0.01 0.01 0.01 0.01 0.01 0.02 0.03 0.04 0.04 0.05 0.06
0.00 0.00 0.00 0.00 0.00 0.00 0.00 0.00 0.00 0.00 0.01 0.01 0.02 0.03 0.04 0.04 0.03 0.03 0.02 0.01 0.01 0.01 0.01 0.01 0.02 0.02 0.02 0.02 0.02 0.01 0.01 0.01 0.01 0.01 0.01 0.01 0.01 0.02 0.03 0.04 0.05 0.05 0.06
0.00 0.00 0.00 0.00 0.00 0.00 0.00 0.00 0.00 0.00 0.00 0.01 0.02 0.02 0.03 0.04 0.03 0.02 0.02 0.01 0.01 0.01 0.01 0.01 0.01 0.01 0.01 0.02 0.02 0.02 0.01 0.01 0.01 0.00 0.01 0.01 0.01 0.01 0.02 0.03 0.04 0.05 0.07
0.00 0.00 0.00 0.00 0.00 0.00 0.00 0.00 0.00 0.00 0.00 0.01 0.01 0.02 0.03 0.03 0.04 0.04 0.03 0.02 0.01 0.01 0.01 0.01 0.01 0.01 0.01 0.02 0.02 0.02 0.01 0.01 0.01 0.00 0.01 0.01 0.01 0.01 0.01 0.02 0.03 0.04 0.06
0.00 0.00 0.00 0.00 0.00 0.00 0.00 0.00 0.00 0.00 0.00 0.00 0.00 0.01 0.01 0.02 0.04 0.05 0.04 0.02 0.01 0.01 0.01 0.01 0.01 0.01 0.01 0.02 0.02 0.02 0.02 0.01 0.01 0.01 0.01 0.01 0.01 0.00 0.01 0.01 0.02 0.03 0.04
0.00 0.00 0.00 0.00 0.00 0.00 0.00 0.00 0.00 0.00 0.00 0.00 0.00 0.00 0.01 0.01 0.03 0.06 0.07 0.04 0.01 0.01 0.01 0.01 0.01 0.01 0.02 0.02 0.03 0.03 0.02 0.02 0.01 0.01 0.01 0.01 0.01 0.01 0.01 0.01 0.01 0.02 0.03
0.00 0.00 0.00 0.00 0.00 0.00 0.00 0.00 0.00 0.00 0.00 0.00 0.00 0.00 0.00 0.01 0.02 0.05 0.09 0.08 0.04 0.02 0.01 0.01 0.01 0.01 0.02 0.02 0.03 0.03 0.03 0.03 0.01 0.01 0.01 0.01 0.01 0.01 0.01 0.01 0.01 0.01 0.02
0.00 0.00 0.00 0.00 0.00 0.00 0.00 0.00 0.00 0.00 0.00 0.00 0.00 0.00 0.00 0.01 0.01 0.03 0.07 0.10 0.10 0.06 0.02 0.01 0.01 0.01 0.01 0.02 0.02 0.03 0.02 0.03 0.02 0.01 0.01 0.01 0.01 0.00 0.00 0.00 0.01 0.01 0.02
0.00 0.00 0.00 0.00 0.00 0.00 0.00 0.00 0.00 0.00 0.00 0.00 0.00 0.00 0.00 0.00 0.01 0.02 0.04 0.07 0.10 0.09 0.05 0.03 0.01 0.01 0.01 0.03 0.04 0.04 0.03 0.03 0.03 0.01 0.01 0.01 0.01 0.01 0.00 0.00 0.00 0.01 0.01
0.00 0.00 0.00 0.00 0.00 0.00 0.00 0.00 0.00 0.00 0.00 0.00 0.00 0.00 0.00 0.00 0.00 0.01 0.01 0.03 0.06 0.07 0.06 0.04 0.02 0.01 0.01 0.01 0.03 0.04 0.04 0.03 0.03 0.03 0.02 0.01 0.01 0.01 0.01 0.00 0.01 0.01 0.01
0.00 0.00 0.00 0.00 0.00 0.00 0.00 0.00 0.00 0.00 0.00 0.00 0.00 0.00 0.00 0.00 0.00 0.00 0.01 0.01 0.02 0.05 0.06 0.04 0.02 0.02 0.01 0.01 0.01 0.03 0.04 0.03 0.03 0.03 0.03 0.02 0.01 0.01 0.01 0.00 0.00 0.00 0.01
0.00 0.00 0.00 0.00 0.00 0.00 0.00 0.00 0.00 0.00 0.00 0.00 0.00 0.00 0.00 0.00 0.00 0.00 0.00 0.01 0.01 0.02 0.04 0.05 0.03 0.03 0.02 0.01 0.01 0.01 0.02 0.03 0.03 0.03 0.03 0.02 0.02 0.01 0.01 0.01 0.00 0.00 0.01
0.00 0.00 0.00 0.00 0.00 0.00 0.00 0.00 0.00 0.00 0.00 0.00 0.00 0.00 0.00 0.00 0.00 0.00 0.00 0.01 0.01 0.01 0.02 0.03 0.03 0.03 0.03 0.02 0.01 0.01 0.01 0.02 0.02 0.03 0.03 0.03 0.02 0.02 0.01 0.01 0.01 0.01 0.01
0.00 0.00 0.00 0.00 0.00 0.00 0.00 0.00 0.00 0.00 0.00 0.00 0.00 0.00 0.00 0.00 0.00 0.00 0.00 0.01 0.01 0.02 0.02 0.01 0.02 0.02 0.02 0.02 0.02 0.01 0.01 0.01 0.02 0.02 0.02 0.03 0.03 0.03 0.02 0.01 0.01 0.01 0.01
MSLP
1012.75 1012.83 1012.98 1013.22 1013.52 1013.84 1014.14 1014.38 1014.54 1014.60 1014.60 1014.56 1014.52 1014.51 1014.54 1014.61 1014.70 1014.77 1014.79 1014.76 1014.67 1014.53 1014.37 1014.20 1014.06 1013.93 1013.82 1013.70 1013.55 1013.37 1013.15 1012.90 1012.66 1012.46 1012.32 1012.26 1012.28 1012.38 1012.51 1012.66 1012.79 1012.88 1012.94
1012.77 1012.92 1013.15 1013.46 1013.83 1014.20 1014.54 1014.79 1014.95 1015.00 1014.99 1014.94 1014.90 1014.90 1014.95 1015.03 1015.13 1015.21 1015.24 1015.21 1015.11 1014.97 1014.79 1014.61 1014.44 1014.29 1014.13 1013.96 1013.76 1013.51 1013.23 1012.94 1012.65 1012.41 1012.25 1012.17 1012.17 1012.25 1012.36 1012.49 1012.61 1012.70 1012.75
1012.81 1013.02 1013.32 1013.70 1014.12 1014.53 1014.90 1015.17 1015.33 1015.40 1015.38 1015.34 1015.31 1015.31 1015.36 1015.45 1015.54 1015.62 1015.65 1015.61 1015.51 1015.36 1015.19 1015.00 1014.82 1014.64 1014.46 1014.25 1014.00 1013.71 1013.38 1013.04 1012.72 1012.45 1012.25 1012.15 1012.12 1012.16 1012.24 1012.33 1012.42 1012.49 1012.54
1012.89 1013.14 1013.49 1013.91 1014.37 1014.82 1015.21 1015.51 1015.69 1015.77 1015.77 1015.74 1015.72 1015.73 1015.78 1015.86 1015.94 1016.00 1016.02 1015.97 1015.87 1015.72 1015.55 1015.37 1015.19 1015.01 1014.81 1014.58 1014.30 1013.98 1013.62 1013.25 1012.90 1012.60 1012.37 1012.23 1012.16 1012.14 1012.17 1012.21 1012.25 1012.29 1012.32
1013.04 1013.31 1013.67 1014.12 1014.60 1015.08 1015.49 1015.80 1016.01 1016.11 1016.13 1016.13 1016.12 1016.14 1016.19 1016.27 1016.33 1016.38 1016.37 1016.31 1016.20 1016.06 1015.90 1015.74 1015.57 1015.40 1015.20 1014.97 1014.68 1014.34 1013.97 1013.58 1013.20 1012.87 1012.61 1012.42 1012.30 1012.23 1012.19 1012.17 1012.15 1012.14 1012.15
1013.26 1013.54 1013.91 1014.35 1014.84 1015.32 1015.74 1016.07 1016.29 1016.42 1016.48 1016.50 1016.53 1016.56 1016.62 1016.69 1016.74 1016.76 1016.74 1016.67 1016.55 1016.41 1016.27 1016.12 1015.97 1015.82 1015.63 1015.40 1015.12 1014.78 1014.40 1014.00 1013.61 1013.26 1012.97 1012.74 1012.56 1012.43 1012.32 1012.23 1012.14 1012.08 1012.04
1013.57 1013.84 1014.20 1014.64 1015.11 1015.58 1015.99 1016.32 1016.56 1016.72 1016.81 1016.87 1016.93 1016.99 1017.06 1017.13 1017.18 1017.19 1017.15 1017.06 1016.94 1016.81 1016.67 1016.53 1016.40 1016.25 1016.08 1015.86 1015.58 1015.25 1014.87 1014.48 1014.09 1013.74 1013.42 1013.16 1012.93 1012.74 1012.56 1012.40 1012.25 1012.12 1012.02
1013.92 1014.20 1014.55 1014.97 1015.42 1015.87 1016.27 1016.59 1016.84 1017.01 1017.13 1017.23 1017.32 1017.42 1017.51 1017.60 1017.65 1017.65 1017.61 1017.52 1017.39 1017.25 1017.11 1016.97 1016.84 1016.69 1016.52 1016.31 1016.04 1015.72 1015.36 1014.98 1014.61 1014.26 1013.94 1013.65 1013.40 1013.16 1012.92 1012.70 1012.48 1012.28 1012.12
1014.28 1014.57 1014.93 1015.35 1015.78 1016.20 1016.58 1016.89 1017.12 1017.31 1017.45 1017.58 1017.71 1017.84 1017.97 1018.07 1018.14 1018.15 1018.11 1018.01 1017.88 1017.72 1017.57 1017.42 1017.27 1017.12 1016.94 1016.72 1016.46 1016.15 1015.81 1015.46 1015.12 1014.79 1014.49 1014.21 1013.94 1013.67 1013.39 1013.11 1012.83 1012.56 1012.33
1014.59 1014.92 1015.30 1015.72 1016.15 1016.55 1016.90 1017.19 1017.41 1017.59 1017.75 1017.90 1018.06 1018.23 1018.39 1018.52 1018.61 1018.64 1018.60 1018.50 1018.36 1018.20 1018.03 1017.85 1017.68 1017.50 1017.30 1017.08 1016.82 1016.53 1016.23 1015.92 1015.62 1015.33 1015.07 1014.81 1014.54 1014.26 1013.95 1013.62 1013.29 1012.96 1012.65
1014.78 1015.18 1015.60 1016.05 1016.48 1016.88 1017.21 1017.47 1017.68 1017.85 1018.01 1018.17 1018.35 1018.55 1018.74 1018.90 1019.02 1019.07 1019.04 1018.95 1018.81 1018.63 1018.44 1018.24 1018.04 1017.84 1017.62 1017.39 1017.14 1016.87 1016.61 1016.35 1016.10 1015.88 1015.66 1015.43 1015.18 1014.90 1014.58 1014.22 1013.83 1013.45 1013.08
1014.83 1015.30 1015.79 1016.28 1016.74 1017.14 1017.46 1017.71 1017.90 1018.06 1018.21 1018.38 1018.57 1018.78 1018.99 1019.17 1019.31 1019.38 1019.38 1019.30 1019.16 1018.98 1018.78 1018.57 1018.35 1018.13 1017.90 1017.66 1017.42 1017.19 1016.97 1016.76 1016.58 1016.42 1016.26 1016.08 1015.85 1015.58 1015.25 1014.86 1014.43 1013.99 1013.56
1014.73 1015.28 1015.84 1016.39 1016.88 1017.29 1017.62 1017.87 1018.05 1018.20 1018.34 1018.50 1018.69 1018.90 1019.12 1019.32 1019.48 1019.57 1019.58 1019.53 1019.40 1019.24 1019.04 1018.82 1018.60 1018.37 1018.15 1017.92 1017.71 1017.51 1017.33 1017.18 1017.06 1016.96 1016.85 1016.71 1016.51 1016.25 1015.91 1015.50 1015.04 1014.56 1014.09
1014.50 1015.13 1015.76 1016.37 1016.90 1017.34 1017.69 1017.94 1018.12 1018.26 1018.39 1018.54 1018.72 1018.93 1019.15 1019.35 1019.52 1019.63 1019.66 1019.63 1019.53 1019.38 1019.21 1019.01 1018.81 1018.60 1018.39 1018.19 1018.00 1017.84 1017.70 1017.60 1017.52 1017.46 1017.39 1017.28 1017.11 1016.85 1016.51 1016.08 1015.60 1015.10 1014.59
1014.21 1014.90 1015.59 1016.24 1016.81 1017.29 1017.66 1017.93 1018.12 1018.26 1018.39 1018.53 1018.70 1018.90 1019.10 1019.30 1019.47 1019.58 1019.64 1019.63 1019.56 1019.45 1019.31 1019.16 1018.99 1018.81 1018.63 1018.46 1018.30 1018.16 1018.05 1017.98 1017.93 1017.89 1017.84 1017.75 1017.59 1017.34 1016.99 1016.56 1016.07 1015.55 1015.04
1013.91 1014.64 1015.36 1016.05 1016.66 1017.16 1017.56 1017.85 1018.06 1018.22 1018.36 1018.50 1018.67 1018.85 1019.04 1019.22 1019.38 1019.50 1019.56 1019.58 1019.54 1019.48 1019.38 1019.27 1019.15 1019.01 1018.87 1018.72 1018.58 1018.46 1018.36 1018.28 1018.23 1018.19 1018.14 1018.05 1017.89 1017.64 1017.31 1016.89 1016.41 1015.90 1015.39
1013.65 1014.39 1015.14 1015.84 1016.46 1016.99 1017.42 1017.75 1017.99 1018.18 1018.34 1018.49 1018.65 1018.82 1018.99 1019.16 1019.31 1019.42 1019.49 1019.52 1019.52 1019.49 1019.44 1019.38 1019.30 1019.20 1019.08 1018.95 1018.82 1018.69 1018.57 1018.47 1018.39 1018.33 1018.25 1018.14 1017.98 1017.75 1017.43 1017.04 1016.59 1016.11 1015.62
1013.45 1014.19 1014.93 1015.63 1016.26 1016.81 1017.26 1017.63 1017.91 1018.14 1018.33 1018.50 1018.67 1018.84 1019.00 1019.15 1019.28 1019.38 1019.45 1019.50 1019.52 1019.52 1019.51 1019.48 1019.43 1019.36 1019.26 1019.13 1018.99 1018.83 1018.67 1018.52 1018.39 1018.28 1018.17 1018.04 1017.87 1017.65 1017.37 1017.02 1016.61 1016.18 1015.74
1013.29 1014.02 1014.73 1015.42 1016.04 1016.60 1017.08 1017.49 1017.82 1018.10 1018.33 1018.54 1018.72 1018.90 1019.05 1019.19 1019.31 1019.40 1019.47 1019.52 1019.55 1019.58 1019.59 1019.58 1019.55 1019.49 1019.39 1019.25 1019.07 1018.86 1018.65 1018.44 1018.25 1018.08 1017.92 1017.76 1017.60 1017.40 1017.15 1016.86 1016.52 1016.14 1015.75
1013.13 1013.83 1014.52 1015.18 1015.80 1016.37 1016.87 1017.32 1017.71 1018.04 1018.32 1018.56 1018.77 1018.96 1019.12 1019.25 1019.36 1019.45 1019.51 1019.57 1019.61 1019.64 1019.66 1019.66 1019.63 1019.57 1019.45 1019.28 1019.07 1018.81 1018.54 1018.27 1018.01 1017.77 1017.57 1017.39 1017.22 1017.04 1016.84 1016.60 1016.33 1016.02 1015.67
1012.90 1013.59 1014.25 1014.89 1015.50 1016.07 1016.61 1017.09 1017.53 1017.91 1018.25 1018.53 1018.78 1018.98 1019.15 1019.29 1019.41 1019.49 1019.56 1019.61 1019.66 1019.69 1019.71 1019.70 1019.67 1019.59 1019.45 1019.25 1019.00 1018.70 1018.38 1018.04 1017.73 1017.44 1017.19 1016.98 1016.81 1016.64 1016.48 1016.30 1016.09 1015.83 1015.52
1012.58 1013.25 1013.89 1014.51 1015.12 1015.70 1016.27 1016.79 1017.28 1017.71 1018.09 1018.42 1018.69 1018.93 1019.11 1019.27 1019.39 1019.49 1019.57 1019.63 1019.67 1019.70 1019.71 1019.69 1019.64 1019.54 1019.38 1019.16 1018.88 1018.56 1018.20 1017.83 1017.46 1017.14 1016.85 1016.61 1016.42 1016.27 1016.12 1015.98 1015.81 1015.59 1015.31
1012.13 1012.79 1013.42 1014.04 1014.65 1015.26 1015.85 1016.42 1016.95 1017.43 1017.84 1018.20 1018.51 1018.76 1018.97 1019.14 1019.29 1019.41 1019.50 1019.57 1019.62 1019.65 1019.65 1019.61 1019.54 1019.42 1019.25 1019.02 1018.73 1018.40 1018.03 1017.64 1017.26 1016.90 1016.58 1016.32 1016.10 1015.93 1015.78 1015.64 1015.49 1015.29 1015.03
1011.60 1012.25 1012.88 1013.51 1014.13 1014.77 1015.39 1016.00 1016.56 1017.07 1017.51 1017.90 1018.22 1018.49 1018.73 1018.93 1019.10 1019.25 1019.36 1019.45 1019.51 1019.53 1019.51 1019.46 1019.36 1019.22 1019.04 1018.81 1018.53 1018.21 1017.86 1017.49 1017.11 1016.74 1016.39 1016.09 1015.83 1015.62 1015.44 1015.29 1015.12 1014.93 1014.67
1011.03 1011.68 1012.31 1012.95 1013.60 1014.26 1014.92 1015.56 1016.15 1016.68 1017.14 1017.53 1017.87 1018.16 1018.41 1018.64 1018.84 1019.02 1019.17 1019.27 1019.33 1019.35 1019.31 1019.23 1019.10 1018.94 1018.75 1018.53 1018.28 1017.99 1017.68 1017.33 1016.97 1016.60 1016.24 1015.90 1015.59 1015.32 1015.09 1014.88 1014.69 1014.47 1014.20
1010.48 1011.12 1011.75 1012.41 1013.09 1013.78 1014.48 1015.14 1015.75 1016.30 1016.76 1017.16 1017.50 1017.80 1018.07 1018.32 1018.56 1018.77 1018.94 1019.06 1019.12 1019.12 1019.05 1018.93 1018.77 1018.59 1018.38 1018.17 1017.94 1017.70 1017.43 1017.13 1016.81 1016.45 1016.07 1015.69 1015.33 1014.99 1014.69 1014.43 1014.18 1013.93 1013.64
Thickness
5747 5747 5744 5745 5746 5746 5747 5747 5747 5748 5748 5748 5748 5748 5748 5748 5747 5747 5747 5746 5746 5745 5745 5745 5744 5744 5744 5743 5743 5742 5742 5741 5740 5740 5739 5739 5738 5737 5736 5735 5735 5735 5733
5744 5743 5740 5741 5742 5742 5742 5743 5743 5743 5743 5744 5744 5744 5744 5743 5743 5743 5743 5743 5742 5742 5741 5741 5741 5741 5740 5740 5739 5739 5738 5737 5737 5736 5736 5735 5735 5734 5733 5732 5731 5732 5729
5740 5740 5737 5737 5737 5738 5738 5738 5738 5738 5739 5739 5739 5739 5739 5739 5739 5739 5739 5739 5739 5738 5737 5738 5738 5737 5736 5736 5735 5735 5734 5734 5733 5733 5733 5734 5733 5731 5729 5728 5727 5726 5725
5735 5734 5733 5732 5732 5733 5733 5733 5733 5733 5734 5734 5734 5734 5734 5734 5734 5734 5734 5734 5734 5734 5734 5733 5733 5733 5732 5732 5731 5731 5730 5730 5729 5729 5731 5732 5731 5728 5726 5725 5724 5723 5721
5730 5729 5727 5726 5727 5727 5727 5727 5727 5728 5728 5728 5728 5729 5729 5729 5729 5729 5729 5729 5729 5729 5729 5729 5728 5728 5728 5727 5727 5726 5726 5726 5725 5726 5728 5728 5727 5724 5722 5721 5720 5719 5718
5724 5723 5721 5720 5720 5721 5721 5721 5721 5721 5722 5722 5722 5723 5723 5723 5723 5723 5723 5723 5723 5723 5723 5723 5723 5723 5722 5722 5722 5721 5721 5721 5722 5724 5724 5724 5723 5720 5718 5717 5716 5715 5714
5718 5717 5715 5713 5714 5714 5715 5715 5715 5715 5715 5716 5716 5716 5716 5716 5716 5716 5717 5717 5717 5717 5717 5717 5717 5717 5717 5717 5716 5716 5716 5716 5718 5720 5720 5719 5718 5715 5714 5714 5713 5712 5711
5711 5710 5709 5707 5707 5707 5708 5708 5708 5708 5708 5709 5709 5709 5709 5709 5709 5710 5710 5710 5710 5711 5711 5711 5711 5711 5711 5711 5711 5711 5711 5711 5713 5714 5714 5714 5712 5710 5710 5709 5709 5708 5707
5704 5704 5703 5702 5701 5700 5701 5701 5701 5701 5701 5701 5702 5702 5702 5702 5702 5703 5703 5703 5703 5703 5704 5704 5704 5704 5704 5704 5704 5704 5705 5705 5707 5708 5708 5708 5706 5705 5705 5704 5704 5703 5703
5697 5697 5697 5696 5695 5695 5694 5693 5694 5694 5694 5694 5694 5695 5695 5695 5696 5696 5696 5696 5696 5696 5696 5697 5697 5697 5697 5697 5698 5698 5698 5699 5701 5702 5702 5701 5700 5699 5699 5699 5699 5698 5697
5689 5690 5690 5690 5689 5688 5688 5687 5687 5687 5687 5687 5688 5688 5689 5690 5690 5689 5688 5688 5689 5689 5689 5689 5690 5690 5691 5691 5691 5691 5692 5694 5695 5695 5695 5694 5693 5693 5693 5693 5693 5693 5692
5684 5683 5683 5683 5682 5681 5681 5680 5681 5681 5681 5681 5682 5682 5682 5682 5682 5682 5681 5681 5681 5682 5682 5682 5682 5683 5684 5685 5685 5684 5686 5687 5688 5688 5688 5686 5686 5686 5686 5687 5687 5687 5686
5679 5677 5676 5675 5675 5674 5674 5674 5674 5674 5673 5674 5674 5675 5675 5675 5675 5675 5675 5675 5675 5675 5676 5675 5676 5676 5677 5677 5677 5678 5678 5679 5679 5680 5680 5678 5678 5678 5679 5680 5680 5680 5680
5673 5671 5669 5668 5667 5667 5667 5667 5667 5667 5667 5667 5666 5667 5668 5668 5667 5668 5668 5667 5667 5667 5667 5668 5668 5668 5669 5669 5669 5670 5670 5670 5671 5671 5671 5670 5670 5670 5672 5672 5673 5673 5674
5666 5664 5663 5662 5661 5660 5660 5660 5660 5660 5660 5659 5659 5659 5660 5660 5660 5660 5660 5659 5659 5659 5659 5659 5660 5660 5660 5660 5660 5661 5662 5662 5662 5663 5663 5662 5662 5662 5663 5665 5665 5665 5666
5661 5659 5657 5656 5655 5653 5653 5653 5653 5652 5652 5652 5652 5651 5652 5652 5652 5652 5652 5650 5650 5650 5650 5650 5650 5650 5651 5651 5652 5652 5653 5653 5654 5654 5654 5655 5654 5654 5655 5655 5656 5657 5658
5657 5654 5651 5649 5648 5647 5647 5646 5646 5645 5645 5645 5644 5643 5643 5643 5643 5643 5643 5642 5641 5640 5640 5641 5641 5641 5641 5641 5642 5643 5643 5644 5644 5645 5645 5646 5646 5646 5646 5646 5647 5648 5649
5652 5649 5646 5643 5642 5641 5640 5639 5639 5638 5638 5637 5636 5636 5635 5634 5634 5634 5634 5633 5632 5631 5631 5631 5631 5631 5631 5632 5633 5633 5634 5634 5635 5635 5636 5636 5636 5636 5637 5637 5636 5637 5638
5647 5644 5640 5638 5636 5634 5633 5632 5631 5631 5630 5629 5629 5628 5627 5626 5625 5625 5624 5623 5622 5622 5622 5621 5621 5621 5621 5621 5622 5623 5624 5625 5626 5626 5626 5626 5625 5625 5625 5626 5626 5626 5627
5641 5638 5635 5632 5629 5627 5626 5625 5624 5623 5623 5622 5621 5620 5619 5618 5617 5616 5615 5614 5613 5612 5611 5611 5610 5609 5609 5609 5610 5612 5614 5614 5615 5616 5616 5615 5614 5614 5613 5614 5614 5616 5616
5635 5632 5629 5627 5624 5621 5620 5619 5618 5618 5616 5615 5613 5612 5610 5609 5607 5606 5605 5604 5603 5602 5601 5600 5599 5599 5598 5597 5598 5601 5605 5605 5606 5605 5604 5602 5602 5601 5600 5600 5601 5602 5604
5630 5627 5624 5621 5618 5616 5614 5613 5611 5610 5608 5607 5605 5603 5602 5600 5598 5597 5596 5594 5593 5592 5591 5589 5588 5587 5586 5584 5583 5586 5592 5596 5596 5593 5591 5589 5589 5587 5587 5586 5586 5587 5588
5626 5622 5619 5615 5612 5609 5606 5604 5602 5601 5600 5599 5598 5596 5593 5591 5589 5587 5586 5584 5583 5581 5580 5579 5577 5576 5575 5573 5569 5568 5571 5579 5581 5582 5579 5577 5575 5574 5573 5572 5571 5572 5573
5620 5616 5612 5609 5605 5602 5599 5598 5597 5595 5595 5593 5590 5588 5585 5582 5580 5578 5576 5574 5573 5571 5570 5568 5566 5564 5561 5561 5558 5555 5554 5555 5556 5564 5567 5564 5561 5560 5558 5557 5557 5557 5557
5613 5609 5605 5601 5598 5594 5592 5590 5589 5588 5587 5584 5581 5579 5576 5574 5571 5568 5566 5565 5563 5561 5559 5557 5554 5552 5549 5547 5545 5543 5541 5540 5540 5541 5549 5551 5549 5547 5544 5542 5541 5541 5541
5606 5601 5597 5594 5591 5587 5584 5582 5580 5579 5577 5575 5573 5570 5568 5565 5562 5559 5556 5555 5553 5551 5548 5546 5543 5540 5537 5535 5533 5531 5528 5527 5527 5526 5529 5533 5534 5535 5530 5527 5526 5525 5526